When you browse on this site, cookies collect data to enhance your experience and personalize the content and advertising you see.
Visit our Privacy Policy to learn more. By continuing to use the site, you agree to this use of cookies and data.
  • In Hungary
  • List of Countries
  • For 7 days
  • Water Temperature
  • Satellite Maps
  • Weather Map
  • News
  • Weather Widgets
  • user-avatar
    Login

    Hourly Weather Pirai do Sul

    Today, 18 November, Sunday

    Time Temperature Precipitation Wind Pressure Humidity
    00:00 +19°C° 0 mm 1 mps 675 mmHg 94%
    01:00 +19°C° 0 mm 1 mps 675 mmHg 94%
    02:00 +19°C° 0 mm 1 mps 675 mmHg 94%
    03:00 +18°C° 0 mm 2 mps 675 mmHg 95%
    04:00 +18°C° 0 mm 2 mps 674 mmHg 94%
    05:00 +19°C° 0 mm 2 mps 674 mmHg 93%
    06:00 +19°C° 0 mm 2 mps 674 mmHg 92%
    07:00 +20°C° 0 mm 2 mps 675 mmHg 89%
    08:00 +21°C° 0 mm 3 mps 675 mmHg 86%
    09:00 +22°C° 0 mm 3 mps 675 mmHg 82%
    10:00 +24°C° 0.6 mm 3 mps 675 mmHg 83%
    11:00 +24°C° 0.6 mm 3 mps 675 mmHg 83%
    12:00 +24°C° 0.6 mm 3 mps 675 mmHg 84%
    13:00 +24°C° 3.2 mm 3 mps 675 mmHg 88%
    14:00 +23°C° 3.2 mm 2 mps 674 mmHg 92%
    15:00 +21°C° 3.2 mm 2 mps 674 mmHg 96%
    16:00 +20°C° 2.7 mm 2 mps 674 mmHg 96%
    17:00 +20°C° 2.7 mm 2 mps 674 mmHg 96%
    18:00 +20°C° 2.7 mm 1 mps 674 mmHg 96%
    19:00 +19°C° 0.3 mm 2 mps 674 mmHg 94%
    20:00 +18°C° 0.3 mm 2 mps 674 mmHg 92%
    21:00 +17°C° 0.3 mm 2 mps 674 mmHg 90%
    22:00 +17°C° 0 mm 2 mps 674 mmHg 89%
    23:00 +17°C° 0 mm 2 mps 675 mmHg 88%

    Tomorrow, 19 November, Monday

    Time Temperature Precipitation Wind Pressure Humidity
    00:00 +16°C° 0 mm 2 mps 675 mmHg 88%
    01:00 +16°C° 0 mm 2 mps 675 mmHg 88%
    02:00 +16°C° 0 mm 2 mps 675 mmHg 89%
    03:00 +16°C° 0 mm 3 mps 674 mmHg 90%
    04:00 +16°C° 0 mm 3 mps 675 mmHg 90%
    05:00 +16°C° 0 mm 3 mps 675 mmHg 90%
    06:00 +17°C° 0 mm 3 mps 675 mmHg 90%
    07:00 +17°C° 0 mm 3 mps 676 mmHg 88%
    08:00 +18°C° 0 mm 3 mps 676 mmHg 85%
    09:00 +18°C° 0 mm 3 mps 677 mmHg 82%
    10:00 +19°C° 0 mm 3 mps 677 mmHg 79%
    11:00 +20°C° 0 mm 3 mps 677 mmHg 75%
    12:00 +20°C° 0 mm 3 mps 677 mmHg 72%
    13:00 +21°C° 0 mm 3 mps 677 mmHg 71%
    14:00 +21°C° 0 mm 3 mps 677 mmHg 69%
    15:00 +21°C° 0 mm 3 mps 676 mmHg 67%
    16:00 +20°C° 0 mm 3 mps 676 mmHg 71%
    17:00 +19°C° 0 mm 3 mps 676 mmHg 74%
    18:00 +18°C° 0 mm 3 mps 676 mmHg 78%
    19:00 +16°C° 0 mm 3 mps 676 mmHg 81%
    20:00 +14°C° 0 mm 3 mps 676 mmHg 84%
    21:00 +13°C° 0 mm 3 mps 677 mmHg 87%
    22:00 +13°C° 0 mm 3 mps 677 mmHg 88%
    23:00 +12°C° 0 mm 3 mps 677 mmHg 89%

    Day after tomorrow, 20 November, Tuesday

    Time Temperature Precipitation Wind Pressure Humidity
    00:00 +12°C° 0 mm 3 mps 677 mmHg 89%
    01:00 +13°C° 0 mm 2 mps 677 mmHg 90%
    02:00 +13°C° 0 mm 2 mps 676 mmHg 90%
    03:00 +13°C° 0 mm 2 mps 676 mmHg 91%
    04:00 +13°C° 0 mm 2 mps 676 mmHg 91%
    05:00 +13°C° 0 mm 2 mps 676 mmHg 91%
    06:00 +13°C° 0 mm 2 mps 676 mmHg 91%
    07:00 +15°C° 0 mm 2 mps 677 mmHg 83%
    08:00 +18°C° 0 mm 3 mps 678 mmHg 75%
    09:00 +20°C° 0 mm 3 mps 679 mmHg 67%
    10:00 +21°C° 0 mm 3 mps 679 mmHg 63%
    11:00 +24°C° 0 mm 3 mps 679 mmHg 60%
    12:00 +25°C° 0 mm 3 mps 679 mmHg 56%
    13:00 +25°C° 0 mm 3 mps 679 mmHg 58%
    14:00 +24°C° 0 mm 3 mps 678 mmHg 60%
    15:00 +24°C° 0 mm 3 mps 677 mmHg 62%
    16:00 +22°C° 0 mm 3 mps 677 mmHg 67%
    17:00 +21°C° 0 mm 3 mps 677 mmHg 71%
    18:00 +20°C° 0 mm 3 mps 677 mmHg 76%
    19:00 +18°C° 0 mm 3 mps 677 mmHg 79%
    20:00 +17°C° 0 mm 3 mps 677 mmHg 83%
    21:00 +16°C° 0 mm 3 mps 678 mmHg 87%
    22:00 +16°C° 0 mm 3 mps 678 mmHg 88%
    23:00 +14°C° 0 mm 3 mps 678 mmHg 89%

    21 November, Wednesday

    Time Temperature Precipitation Wind Pressure Humidity
    00:00 +15°C° 0 mm 2 mps 678 mmHg 90%
    01:00 +15°C° 0 mm 2 mps 677 mmHg 90%
    02:00 +15°C° 0 mm 2 mps 677 mmHg 90%
    03:00 +15°C° 0 mm 2 mps 676 mmHg 90%
    04:00 +15°C° 0 mm 2 mps 677 mmHg 90%
    05:00 +16°C° 0 mm 2 mps 677 mmHg 90%
    06:00 +16°C° 0 mm 2 mps 677 mmHg 90%
    07:00 +17°C° 0 mm 2 mps 678 mmHg 87%
    08:00 +18°C° 0 mm 2 mps 678 mmHg 84%
    09:00 +19°C° 0 mm 3 mps 679 mmHg 81%
    10:00 +19°C° 0.1 mm 2 mps 678 mmHg 82%
    11:00 +19°C° 0.1 mm 2 mps 678 mmHg 84%
    12:00 +19°C° 0.1 mm 2 mps 678 mmHg 85%
    13:00 +19°C° 0 mm 2 mps 678 mmHg 83%
    14:00 +20°C° 0 mm 2 mps 677 mmHg 82%
    15:00 +21°C° 0 mm 2 mps 677 mmHg 80%
    16:00 +20°C° 0.1 mm 2 mps 677 mmHg 83%
    17:00 +20°C° 0.1 mm 2 mps 676 mmHg 85%
    18:00 +19°C° 0.1 mm 2 mps 676 mmHg 87%
    19:00 +19°C° 0 mm 2 mps 676 mmHg 90%
    20:00 +18°C° 0 mm 2 mps 677 mmHg 92%
    21:00 +17°C° 0 mm 2 mps 677 mmHg 94%
    22:00 +17°C° 0 mm 2 mps 677 mmHg 95%
    23:00 +17°C° 0 mm 2 mps 677 mmHg 95%

    22 November, Thursday

    Time Temperature Precipitation Wind Pressure Humidity
    00:00 +17°C° 0 mm 2 mps 677 mmHg 96%
    01:00 +17°C° 0 mm 2 mps 676 mmHg 96%
    02:00 +17°C° 0 mm 2 mps 676 mmHg 97%
    03:00 +18°C° 0 mm 1 mps 675 mmHg 97%
    04:00 +18°C° 0 mm 1 mps 675 mmHg 96%
    05:00 +18°C° 0 mm 1 mps 676 mmHg 96%
    06:00 +18°C° 0 mm 1 mps 676 mmHg 96%
    07:00 +18°C° 0 mm 2 mps 676 mmHg 88%
    08:00 +20°C° 0 mm 2 mps 677 mmHg 79%
    09:00 +23°C° 0 mm 2 mps 678 mmHg 71%
    10:00 +23°C° 0.2 mm 2 mps 678 mmHg 71%
    11:00 +24°C° 0.2 mm 2 mps 677 mmHg 71%
    12:00 +24°C° 0.2 mm 2 mps 677 mmHg 71%
    13:00 +25°C° 0.6 mm 2 mps 676 mmHg 70%
    14:00 +25°C° 0.6 mm 2 mps 676 mmHg 69%
    15:00 +26°C° 0.6 mm 1 mps 675 mmHg 69%
    16:00 +25°C° 0.7 mm 1 mps 675 mmHg 73%
    17:00 +24°C° 0.7 mm 1 mps 675 mmHg 78%
    18:00 +24°C° 0.7 mm 1 mps 675 mmHg 82%
    19:00 +22°C° 0.1 mm 1 mps 675 mmHg 86%
    20:00 +21°C° 0.1 mm 1 mps 675 mmHg 90%
    21:00 +20°C° 0.1 mm 1 mps 675 mmHg 94%
    22:00 +19°C° 1 mm 1 mps 675 mmHg 95%
    23:00 +19°C° 1 mm 1 mps 675 mmHg 96%

    23 November, Friday

    Time Temperature Precipitation Wind Pressure Humidity
    00:00 +18°C° 1 mm 1 mps 675 mmHg 97%
    01:00 +18°C° 0 mm 1 mps 675 mmHg 97%
    02:00 +18°C° 0 mm 1 mps 674 mmHg 97%
    03:00 +16°C° 0 mm 1 mps 674 mmHg 96%
    04:00 +16°C° 0 mm 1 mps 674 mmHg 96%
    05:00 +16°C° 0 mm 1 mps 674 mmHg 96%
    06:00 +16°C° 0 mm 1 mps 675 mmHg 96%
    07:00 +19°C° 0 mm 1 mps 675 mmHg 87%
    08:00 +21°C° 0 mm 2 mps 676 mmHg 77%
    09:00 +24°C° 0 mm 2 mps 677 mmHg 68%
    10:00 +25°C° 0.3 mm 2 mps 677 mmHg 67%
    11:00 +26°C° 0.3 mm 2 mps 676 mmHg 67%
    12:00 +27°C° 0.3 mm 2 mps 676 mmHg 66%
    13:00 +27°C° 1.1 mm 2 mps 676 mmHg 68%
    14:00 +27°C° 1.1 mm 2 mps 675 mmHg 69%
    15:00 +27°C° 1.1 mm 1 mps 674 mmHg 71%
    16:00 +26°C° 0.7 mm 1 mps 674 mmHg 76%
    17:00 +25°C° 0.7 mm 1 mps 674 mmHg 80%
    18:00 +24°C° 0.7 mm 1 mps 674 mmHg 85%
    19:00 +23°C° 1.1 mm 1 mps 674 mmHg 88%
    20:00 +21°C° 1.1 mm 1 mps 674 mmHg 91%
    21:00 +20°C° 1.1 mm 1 mps 674 mmHg 94%
    22:00 +20°C° 0.4 mm 1 mps 674 mmHg 94%
    23:00 +20°C° 0.4 mm 1 mps 674 mmHg 95%
    Show more